Content
SEND FEEDBACK

Canada Flag

HAMILTON, ONTARIO


Home > North America > Canada > Ontario
Elevation: 236 meters     Latitude: 43 10N     Longitude: 079 55W

WEATHER
 
SELECT A DAY
Number of Records: 186,305;   Date Range: 1/1/95 - 3/22/16
 
SHARE

PRINT THIS DATA

[ ← Previous Day ]
WEATHER ALMANAC - 10 JANUARY, 2013
[ Next Day → ]
[ °F ]   °C
Weather ElementAverageHighLow
Temperature0.4 °C4 °C (2:00 pm)-3 °C (8:00 am)
Dewpoint-3.1 °C-2 °C (11:00 am)-4 °C (3:00 am)
Humidity76.2 %93 % (8:00 am)56 % (1:00 pm)
Barometer1033.5 hPa1036.6 hPa (9:00 am)1029.5 hPa (11:00 pm)
Wind Speed9.3 km/h16.7 km/h (10:00 pm)
Weather ElementAverage
Visibility24.1 km
Wind DirectionSSW (201.2 °)

Weather ElementTotal
Precipitation---
Heating Degree Days17.8 (Base 18.3)
Averaged from 25 records on 10 January, 2013
WEATHER CONDITIONS BREAKOUT
WIND DIRECTION BREAKOUT
WEATHER BY HOUR - 10 JANUARY, 2013
[ °F ]   °C
Local TimeTemperatureDewpointHumidityBarometerVisibilityWind DirectionWind SpeedGust SpeedPrecipitationEventsConditions
1:00 AM2.2 °C-2.8 °C59 %1029.8 hPa24.1 kmNW (310°)14.8 km/hScattered Clouds
2:00 AM2 °C-3 °C70 %1030.8 hPa24.1 kmWNW (300°)9.3 km/hClear
3:00 AM-1 °C-4 °C80 %1032.2 hPa24.1 kmSW (230°)11.1 km/hPartly Cloudy
4:00 AM-1 °C-4 °C80 %1032.8 hPa24.1 kmWSW (240°)13 km/hMostly Cloudy
6:00 AM-2 °C-4 °C86 %1033.5 hPa24.1 kmWest (270°)9.3 km/hMostly Cloudy
7:00 AM-2 °C-4 °C86 %1034.5 hPa24.1 kmWest (280°)7.4 km/hScattered Clouds
7:00 AM-1.7 °C-3.3 °C81 %1034.5 hPa24.1 kmWest (280°)7.4 km/hScattered Clouds
8:00 AM-3 °C-4 °C93 %1036.2 hPa24.1 kmWSW (240°)7.4 km/hScattered Clouds
9:00 AM-3 °C-4 °C93 %1036.6 hPa24.1 kmSW (230°)9.3 km/hScattered Clouds
10:00 AM0 °C-3 °C80 %1036.6 hPa24.1 kmWSW (250°)5.6 km/hScattered Clouds
11:00 AM2 °C-2 °C75 %1036.6 hPa24.1 kmSW (230°)7.4 km/hScattered Clouds
12:00 PM3 °C-2 °C70 %1035.6 hPa24.1 kmWSW (240°)9.3 km/hScattered Clouds
1:00 PM3 °C-3 °C65 %1034.9 hPa24.1 kmWSW (240°)9.3 km/hMostly Cloudy
1:00 PM2.8 °C-2.8 °C56 %1034.9 hPa24.1 kmSW (230°)7.4 km/hScattered Clouds
2:00 PM4 °C-3 °C61 %1034.2 hPa24.1 kmWSW (240°)7.4 km/hMostly Cloudy
3:00 PM4 °C-2 °C65 %1034.2 hPa24.1 kmSSW (200°)7.4 km/hMostly Cloudy
4:00 PM2 °C-3 °C70 %1034.2 hPa24.1 kmSouth (180°)9.3 km/hMostly Cloudy
5:00 PM1 °C-3 °C75 %1033.9 hPa24.1 kmSouth (170°)7.4 km/hMostly Cloudy
6:00 PM1 °C-3 °C75 %1033.5 hPa24.1 kmESE (110°)5.6 km/hMostly Cloudy
7:00 PM0 °C-3 °C80 %1033.5 hPa24.1 kmSE (140°)9.3 km/hMostly Cloudy
7:00 PM0 °C-2.8 °C74 %1033.5 hPa24.1 kmSE (130°)7.4 km/hClear
8:00 PM-1 °C-3 °C86 %1032.8 hPa24.1 kmEast (80°)9.3 km/hMostly Cloudy
9:00 PM-1 °C-3 °C86 %1032.5 hPa24.1 kmENE (70°)9.3 km/hMostly Cloudy
10:00 PM0 °C-3 °C80 %1030.8 hPa24.1 kmEast (80°)16.7 km/hMostly Cloudy
11:00 PM0 °C-3 °C80 %1029.5 hPa24.1 kmENE (60°)16.7 km/hMostly Cloudy
Hourly data recorded from CYHM, located 0 kilometers away from Hamilton, Ontario




STORIES FROM OUR PARTNERS